Regional Weather Roundup
Issued by NWS

Home | Current Version | Previous Version | Text Only | Print | Product List | Glossary On
Versions: 1 2 3 4 5 6 7 8 9 10 11 12 13 14 15 16 17 18 19 20 21 22 23 24 25 26 27 28 29 30 31 32 33 34 35 36 37 38 39 40 41 42 43 44 45 46 47 48 49 50
424
ASUS43 KTOP 211808
RWRKS

WEATHER ROUNDUP FOR KANSAS
NATIONAL WEATHER SERVICE GOODLAND KS
1200 PM CST TUE NOV 21 2017

NOTE:  "FAIR" INDICATES FEW OR NO CLOUDS BELOW 12,000 FEET WITH NO
SIGNIFICANT WEATHER AND/OR OBSTRUCTIONS TO VISIBILITY.

KSZ001>006-013>018-027>032-041>047-211900-
NORTHWEST KANSAS

CITY           SKY/WX    TMP DP  RH WIND       PRES   REMARKS
GOODLAND       SUNNY     46  27  47 N15G23    30.29R
6HR MIN TEMP:  38; 6HR MAX TEMP:  54;

HILL CITY      SUNNY     48  26  42 N22G30    30.27R
6HR MIN TEMP:  41; 6HR MAX TEMP:  48;

RUSSELL        SUNNY     47  25  42 N21       30.23R
6HR MIN TEMP:  40; 6HR MAX TEMP:  48;

$$

KSZ061>065-074>080-084>089-211900-
SOUTHWEST KANSAS

CITY           SKY/WX    TMP DP  RH WIND       PRES   REMARKS
DODGE CITY     SUNNY     50  27  40 NE31G39   30.20R
6HR MIN TEMP:  44; 6HR MAX TEMP:  50;

ELKHART        SUNNY     58  32  38 N25G35    30.22R
GARDEN CITY    SUNNY     48  27  44 NE28G40   30.24R
6HR MIN TEMP:  45; 6HR MAX TEMP:  53;

GREAT BEND     SUNNY     49  26  41 N26G35    30.21R
LIBERAL        SUNNY     54  26  34 N26G33    30.19R
PRATT          SUNNY     50  27  40 NE22G38   30.18R
6HR MIN TEMP:  45; 6HR MAX TEMP:  51;

$$

KSZ066>073-081>083-090>101-211900-
SOUTHEAST KANSAS

CITY           SKY/WX    TMP DP  RH WIND       PRES   REMARKS
CHANUTE        PTSUNNY   57  31  37 N14       30.07R
6HR MIN TEMP:  44; 6HR MAX TEMP:  58;

COFFEYVILLE    CLOUDY    55  35  47 N15       30.04R
6HR MIN TEMP:  44; 6HR MAX TEMP:  55;

HUTCHINSON     SUNNY     52  28  39 N24G32    30.16R
6HR MIN TEMP:  43; 6HR MAX TEMP:  53;

MEDICINE LODGE   N/A     55  29  36 N29G43    30.12R
NEWTON         SUNNY     52  28  39 N30G38    30.13R
PARSONS        CLOUDY    55  33  43 NE10G18   30.06R
6HR MIN TEMP:  44; 6HR MAX TEMP:  55;

WICHITA INTL   MOSUNNY   55  31  39 N22G29    30.11R
6HR MIN TEMP:  36; 6HR MAX TEMP:  55;

WICHITA JABRA  SUNNY     55  30  38 N25G36    30.11R
6HR MIN TEMP:  41; 6HR MAX TEMP:  55;

WICHITA MCCONL SUNNY     54  28  36 N29G36    30.10R
WINFIELD       SUNNY     57  28  33 N26G32    30.07R
6HR MIN TEMP:  37; 6HR MAX TEMP:  58;

$$

KSZ007>012-019>026-033>040-048>060-102>105-211900-
NORTHEAST KANSAS

CITY           SKY/WX    TMP DP  RH WIND       PRES   REMARKS
CONCORDIA      SUNNY     45  22  40 N17G30    30.23R
6HR MIN TEMP:  42; 6HR MAX TEMP:  48;

EMPORIA        SUNNY     54  29  38 N25G35    30.12R
6HR MIN TEMP:  42; 6HR MAX TEMP:  54;

LAWRENCE       MOSUNNY   50  26  39 N24G32    30.12R
6HR MIN TEMP:  43; 6HR MAX TEMP:  52;

MANHATTAN      SUNNY     49  24  37 N20G25    30.19R
6HR MIN TEMP:  46; 6HR MAX TEMP:  51;

MARYSVILLE     SUNNY     43  12  28 N28G33    30.19R
OLATHE IND     SUNNY     50  28  42 N25G36    30.09R
6HR MIN TEMP:  44; 6HR MAX TEMP:  51;

OLATHE EXE     SUNNY     50  28  42 N22G32    30.08R
6HR MIN TEMP:  45; 6HR MAX TEMP:  51; 6HR PCP: TRACE;

SALINA         SUNNY     51  27  39 N28G33    30.21R
6HR MIN TEMP:  48; 6HR MAX TEMP:  51;

TOPEKA BILLARD MOSUNNY   49  26  41 NW21G30   30.14R
6HR MIN TEMP:  44; 6HR MAX TEMP:  52;

TOPEKA FORBES  SUNNY     50  26  39 N25G37    30.12R
6HR MIN TEMP:  43; 6HR MAX TEMP:  52;

$$




USA.gov is the U.S. government's official web portal to all federal, state and local government web resources and services.